DW0664 Weather Reports


Display with metric or nautical units.
time (UTC)temp
F
wind
direction
speed
MPH
gust
MPH
rain 1hr
in
rain 24hr
in
rain mn
in
humidity
%
barometer
mb
20260508134133 62 103 1.0 2.0 0.00 0.02 0.02 97 1015.3
20260508133629 62 72 0.0 1.0 0.00 0.02 0.02 97 1015.4
20260508133127 62 78 0.0 2.0 0.00 0.02 0.02 97 1015.3
20260508132625 62 72 1.0 2.0 0.00 0.02 0.02 97 1015.5
20260508132121 62 83 1.0 2.0 0.00 0.02 0.02 97 1015.6
20260508131617 62 72 0.0 1.0 0.00 0.02 0.02 97 1015.5
20260508131114 62 65 0.0 0.0 0.00 0.02 0.02 97 1015.4
20260508130611 62 64 0.0 0.0 0.07 0.02 0.02 96 1015.7
20260508130108 62 62 0.0 0.0 0.12 0.02 0.02 96 1015.6
20260508125608 62 62 0.0 1.0 0.05 0.01 0.01 96 1015.8
20260508125106 62 74 0.0 1.0 0.00 0.00 0.00 96 1015.7
20260508124604 62 79 0.0 0.0 0.00 0.00 0.00 95 1015.7
20260508124100 62 68 0.0 1.0 0.00 0.00 0.00 95 1015.8
20260508123559 62 75 0.0 1.0 0.00 0.00 0.00 94 1015.7
20260508123055 62 62 0.0 0.0 0.00 0.00 0.00 94 1015.7
20260508122552 62 63 0.0 1.0 0.00 0.00 0.00 93 1015.9
20260508122049 62 61 0.0 1.0 0.00 0.00 0.00 93 1016.1
20260508121548 62 66 0.0 1.0 0.00 0.00 0.00 92 1016.0
20260508121045 62 58 0.0 0.0 0.00 0.00 0.00 91 1016.0
20260508120542 62 66 0.0 0.0 0.00 0.00 0.00 91 1016.0
20260508120041 62 69 0.0 1.0 0.00 0.00 0.00 90 1016.1
20260508115537 62 65 0.0 1.0 0.00 0.00 0.00 90 1016.0
20260508115034 62 35 1.0 2.0 0.00 0.00 0.00 90 1016.1
20260508114531 62 60 0.0 3.0 0.00 0.00 0.00 90 1016.0
20260508114027 62 46 1.0 2.0 0.00 0.00 0.00 89 1016.2
20260508113525 62 70 0.0 1.0 0.00 0.00 0.00 89 1016.0
20260508113023 62 65 0.0 1.0 0.00 0.00 0.00 89 1015.9
20260508112519 62 61 0.0 1.0 0.00 0.00 0.00 89 1015.9
20260508112016 62 63 0.0 1.0 0.00 0.00 0.00 89 1015.7
20260508111513 62 64 0.0 1.0 0.00 0.00 0.00 89 1015.7
20260508111010 62 63 0.0 1.0 0.00 0.00 0.00 89 1015.5
20260508110508 63 63 0.0 1.0 0.00 0.00 0.00 89 1015.4
20260508110003 63 55 0.0 1.0 0.00 0.00 0.00 89 1015.5
20260508105458 62 60 0.0 0.0 0.00 0.00 0.00 89 1015.3
20260508104956 62 63 0.0 0.0 0.00 0.00 0.00 89 1015.0
20260508104453 62 65 0.0 0.0 0.00 0.00 0.00 88 1015.3
20260508103950 62 66 0.0 0.0 0.00 0.00 0.00 88 1015.5
20260508103447 63 66 0.0 0.0 0.00 0.00 0.00 88 1015.5
20260508102943 63 66 0.0 0.0 0.00 0.00 0.00 88 1015.7
20260508102442 62 66 0.0 0.0 0.00 0.00 0.00 88 1015.7
20260508101939 62 53 0.0 0.0 0.00 0.00 0.00 88 1015.8
20260508101436 63 61 0.0 0.0 0.00 0.00 0.00 88 1015.5
20260508100933 63 62 0.0 1.0 0.00 0.00 0.00 87 1015.7
20260508100432 63 64 0.0 0.0 0.00 0.00 0.00 87 1015.8
20260508095928 63 65 0.0 0.0 0.00 0.00 0.00 86 1015.5
20260508095426 63 66 0.0 0.0 0.00 0.00 0.00 86 1015.4
20260508094922 63 61 0.0 0.0 0.00 0.00 0.00 85 1015.6
20260508094419 63 62 0.0 0.0 0.00 0.00 0.00 84 1015.9
20260508093916 63 60 0.0 0.0 0.00 0.00 0.00 84 1015.7
20260508093414 63 61 0.0 0.0 0.00 0.00 0.00 84 1015.9
20260508092911 63 65 0.0 0.0 0.00 0.00 0.00 84 1015.7
20260508092409 63 63 0.0 0.0 0.00 0.00 0.00 85 1015.7
20260508091907 63 67 0.0 0.0 0.00 0.00 0.00 85 1015.5
20260508091403 63 63 0.0 1.0 0.00 0.00 0.00 84 1015.4
20260508090900 63 63 0.0 0.0 0.00 0.00 0.00 85 1015.3
20260508090359 63 65 0.0 1.0 0.00 0.00 0.00 84 1015.0
20260508085854 63 59 0.0 0.0 0.00 0.00 0.00 85 1015.2
20260508085351 63 65 0.0 1.0 0.00 0.00 0.00 85 1015.4
20260508084848 62 63 0.0 1.0 0.00 0.00 0.00 84 1015.0
20260508084345 62 64 0.0 2.0 0.00 0.00 0.00 84 1015.3
20260508083843 62 64 0.0 2.0 0.00 0.00 0.00 85 1015.4
20260508083340 62 67 0.0 3.0 0.00 0.00 0.00 85 1015.3
20260508082839 62 64 0.0 1.0 0.00 0.00 0.00 85 1015.2
20260508082337 62 60 0.0 1.0 0.00 0.00 0.00 85 1015.3
20260508081834 62 50 0.0 1.0 0.00 0.00 0.00 85 1015.2
20260508081331 62 63 0.0 1.0 0.00 0.00 0.00 85 1015.5
20260508080828 62 54 0.0 1.0 0.00 0.00 0.00 85 1015.4
20260508080326 62 55 0.0 0.0 0.00 0.00 0.00 85 1015.3
20260508075822 62 65 0.0 1.0 0.00 0.00 0.00 85 1015.8
20260508075319 62 62 0.0 1.0 0.00 0.00 0.00 86 1015.7
20260508074817 62 66 0.0 0.0 0.00 0.00 0.00 86 1016.2
20260508074314 62 59 0.0 0.0 0.00 0.00 0.00 87 1016.3
20260508073811 62 61 0.0 0.0 0.00 0.00 0.00 87 1016.4
20260508073309 62 63 0.0 0.0 0.00 0.00 0.00 87 1016.0
20260508072805 62 62 0.0 1.0 0.00 0.00 0.00 87 1016.2
20260508072306 62 59 0.0 1.0 0.00 0.00 0.00 87 1016.2
20260508071759 62 63 0.0 0.0 0.00 0.00 0.00 87 1016.1
20260508071258 62 54 0.0 1.0 0.00 0.00 0.00 87 1016.3
20260508070754 62 60 0.0 1.0 0.00 0.00 0.00 87 1016.1
20260508070253 62 58 0.0 0.0 0.00 0.00 0.00 87 1016.6
20260508065750 62 43 1.0 2.0 0.00 0.00 0.00 87 1016.7
20260508065248 62 65 0.0 1.0 0.00 0.00 0.00 87 1016.7
20260508064746 62 59 0.0 1.0 0.00 0.00 0.00 87 1016.2
20260508064243 62 63 0.0 0.0 0.00 0.00 0.00 87 1016.2
20260508063740 62 61 0.0 1.0 0.00 0.00 0.00 87 1016.0
20260508063239 62 65 0.0 1.0 0.00 0.00 0.00 87 1016.3
20260508062735 62 65 0.0 1.0 0.00 0.00 0.00 87 1016.2
20260508062233 62 61 0.0 1.0 0.00 0.00 0.00 87 1016.4
20260508061730 62 63 0.0 0.0 0.00 0.00 0.00 87 1016.4
20260508061227 62 58 0.0 0.0 0.00 0.00 0.00 86 1016.3
20260508060723 62 42 0.0 1.0 0.00 0.00 0.00 86 1016.4
20260508060221 62 57 0.0 0.0 0.00 0.00 0.00 86 1015.9
20260508055716 62 61 0.0 2.0 0.00 0.00 0.00 86 1015.9
20260508055214 62 66 0.0 1.0 0.00 0.00 0.00 86 1016.4
20260508054710 62 50 0.0 1.0 0.00 0.00 0.00 87 1016.8
20260508054208 62 60 0.0 0.0 0.00 0.00 0.00 86 1016.4
20260508053704 62 59 0.0 0.0 0.00 0.00 0.00 86 1016.5
20260508053202 62 62 0.0 0.0 0.00 0.00 0.00 86 1016.6
20260508052659 62 62 0.0 0.0 0.00 0.00 0.00 85 1016.4
20260508052156 62 62 0.0 0.0 0.00 0.00 0.00 85 1016.0
20260508051652 62 66 0.0 1.0 0.00 0.00 0.00 85 1016.3
20260508051148 62 66 0.0 0.0 0.00 0.00 0.00 85 1016.5
20260508050644 62 61 0.0 0.0 0.00 0.00 0.00 85 1016.6
20260508050142 62 70 0.0 1.0 0.00 0.00 0.00 85 1016.6
20260508045637 62 60 0.0 0.0 0.00 0.00 0.00 85 1017.2
20260508045136 62 57 0.0 1.0 0.00 0.00 0.00 85 1017.4
20260508044632 62 52 0.0 1.0 0.00 0.00 0.00 85 1017.1
20260508044128 62 57 0.0 0.0 0.00 0.00 0.00 85 1016.5
20260508043625 62 70 0.0 1.0 0.00 0.00 0.00 85 1016.4
20260508043123 62 57 0.0 1.0 0.00 0.00 0.00 85 1016.5
20260508042619 62 61 0.0 0.0 0.00 0.00 0.00 84 1016.1
20260508042117 62 82 0.0 1.0 0.00 0.00 0.00 84 1016.4
20260508041613 62 68 0.0 0.0 0.00 0.00 0.00 85 1016.8
20260508041109 62 61 0.0 0.0 0.00 0.00 0.00 84 1017.0
20260508040606 62 60 0.0 2.0 0.00 0.00 0.00 84 1016.8
20260508040104 63 60 0.0 1.0 0.00 0.00 0.00 84 1016.5
20260508035601 63 62 0.0 1.0 0.00 0.00 0.00 84 1016.4
20260508035058 63 59 0.0 0.0 0.00 0.00 0.00 83 1016.6
20260508034555 63 33 1.0 2.0 0.00 0.00 0.00 83 1016.5
20260508034052 63 76 0.0 0.0 0.00 0.00 0.00 83 1016.7
20260508033549 63 69 0.0 1.0 0.00 0.00 0.00 82 1016.5
20260508033048 63 64 0.0 0.0 0.00 0.00 0.00 82 1016.0
20260508032543 63 47 1.0 2.0 0.00 0.00 0.00 82 1015.8
20260508032042 63 60 0.0 0.0 0.00 0.00 0.00 81 1016.0
20260508031538 63 60 0.0 0.0 0.00 0.00 0.00 82 1015.7
20260508031034 63 51 0.0 2.0 0.00 0.00 0.00 81 1015.7
20260508030531 63 59 0.0 0.0 0.00 0.00 0.00 80 1016.1
20260508030029 64 142 0.0 2.0 0.00 0.00 0.00 80 1016.0
20260508025524 64 62 0.0 0.0 0.00 0.00 0.00 80 1016.0
20260508025022 64 62 0.0 0.0 0.00 0.00 0.00 79 1016.0
20260508024518 64 77 1.0 2.0 0.00 0.00 0.00 79 1016.0
20260508024015 64 170 2.0 3.0 0.00 0.00 0.00 79 1016.0
20260508023511 64 109 1.0 1.0 0.00 0.00 0.00 80 1016.1
20260508023009 63 69 0.0 0.0 0.00 0.00 0.00 80 1016.2
20260508022504 63 45 0.0 1.0 0.00 0.00 0.00 80 1016.2
20260508022001 63 72 0.0 1.0 0.00 0.00 0.00 80 1016.1
20260508021458 64 62 0.0 0.0 0.00 0.00 0.00 80 1016.1
20260508020954 64 70 0.0 1.0 0.00 0.00 0.00 80 1015.7
20260508020452 64 70 0.0 0.0 0.00 0.00 0.00 80 1015.7
20260508015948 64 69 0.0 0.0 0.00 0.00 0.00 80 1015.7
20260508015446 64 59 0.0 1.0 0.00 0.00 0.00 79 1015.9
20260508014943 64 64 0.0 1.0 0.00 0.00 0.00 79 1015.9
20260508014440 64 60 0.0 0.0 0.00 0.00 0.00 79 1016.2
20260508013935 64 48 1.0 1.0 0.00 0.00 0.00 78 1016.3
20260508013431 64 56 0.0 2.0 0.00 0.00 0.00 78 1016.3
20260508012929 64 65 0.0 0.0 0.00 0.00 0.00 78 1016.3
20260508012426 64 44 0.0 0.0 0.00 0.00 0.00 78 1016.4
20260508011923 64 63 0.0 1.0 0.00 0.00 0.00 78 1016.5
20260508011421 64 67 0.0 0.0 0.00 0.00 0.00 78 1016.6
20260508010918 64 61 0.0 1.0 0.00 0.00 0.00 77 1016.8
20260508010415 64 72 0.0 1.0 0.00 0.00 0.00 77 1016.6
20260508005912 64 62 0.0 0.0 0.00 0.00 0.00 76 1016.7
20260508005409 65 58 0.0 2.0 0.00 0.00 0.00 76 1016.5
20260508004906 65 66 0.0 0.0 0.00 0.00 0.00 76 1016.7
20260508004402 65 57 1.0 1.0 0.00 0.00 0.00 75 1016.6
20260508003858 65 67 0.0 2.0 0.00 0.00 0.00 75 1016.5
20260508003355 65 57 0.0 1.0 0.00 0.00 0.00 75 1016.5
20260508002853 65 60 0.0 0.0 0.00 0.00 0.00 74 1016.4
20260508002349 65 63 0.0 0.0 0.00 0.00 0.00 74 1016.7
20260508001845 65 53 0.0 1.0 0.00 0.00 0.00 73 1016.7
20260508001341 66 67 1.0 2.0 0.00 0.00 0.00 73 1016.9
20260508000838 66 61 0.0 1.0 0.00 0.00 0.00 73 1017.1
20260508000335 66 62 0.0 1.0 0.00 0.00 0.00 74 1017.0
20260507235831 66 62 0.0 1.0 0.00 0.00 0.00 73 1016.8
20260507235329 66 65 0.0 1.0 0.00 0.00 0.00 72 1016.9
20260507234825 66 59 0.0 2.0 0.00 0.00 0.00 72 1017.0
20260507234322 66 50 1.0 2.0 0.00 0.00 0.00 72 1017.2
20260507233818 66 60 0.0 1.0 0.00 0.00 0.00 71 1016.8
20260507233316 66 62 0.0 1.0 0.00 0.00 0.00 71 1016.9
20260507232814 66 48 0.0 1.0 0.00 0.00 0.00 71 1017.0
20260507232310 66 39 0.0 2.0 0.00 0.00 0.00 71 1016.9
20260507231807 67 77 0.0 1.0 0.00 0.00 0.00 71 1017.1
20260507231304 67 59 1.0 3.0 0.00 0.00 0.00 70 1016.8
20260507230800 67 50 0.0 3.0 0.00 0.00 0.00 70 1016.4
20260507230258 67 78 1.0 1.0 0.00 0.00 0.00 70 1016.7
20260507225757 67 62 0.0 1.0 0.00 0.00 0.00 70 1016.8
20260507225254 67 69 0.0 1.0 0.00 0.00 0.00 70 1017.0
20260507224750 67 22 1.0 2.0 0.00 0.00 0.00 69 1017.3
20260507224247 67 58 0.0 1.0 0.00 0.00 0.00 69 1017.3
20260507223743 68 54 1.0 4.0 0.00 0.00 0.00 69 1017.3
20260507223240 68 67 1.0 1.0 0.00 0.00 0.00 68 1017.3
20260507222737 67 46 0.0 2.0 0.00 0.00 0.00 68 1017.3
20260507222233 67 7 1.0 2.0 0.00 0.00 0.00 69 1017.4
20260507221730 68 66 1.0 2.0 0.00 0.00 0.00 68 1017.4
20260507221226 69 61 0.0 1.0 0.00 0.00 0.00 69 1017.3
20260507220723 69 53 0.0 1.0 0.00 0.00 0.00 69 1017.3
20260507220221 69 9 0.0 1.0 0.00 0.00 0.00 69 1016.9
20260507215717 68 63 0.0 2.0 0.00 0.00 0.00 69 1016.9
20260507215215 68 65 1.0 3.0 0.00 0.00 0.00 69 1016.7
20260507214712 68 39 1.0 2.0 0.00 0.00 0.00 69 1016.9
20260507214209 68 60 0.0 2.0 0.00 0.00 0.00 69 1017.4
20260507213704 68 55 0.0 1.0 0.00 0.00 0.00 69 1017.7
20260507213202 68 52 0.0 1.0 0.00 0.00 0.00 69 1017.6
20260507212657 68 66 0.0 1.0 0.00 0.00 0.00 70 1017.3
20260507212154 68 51 0.0 3.0 0.00 0.00 0.00 70 1016.9
20260507211651 67 45 0.0 2.0 0.00 0.00 0.00 71 1017.0
20260507211146 67 1 1.0 1.0 0.00 0.00 0.00 70 1017.0
20260507210644 66 76 1.0 3.0 0.00 0.00 0.00 69 1016.5
20260507210141 67 51 0.0 4.0 0.00 0.00 0.00 69 1016.3
20260507205637 67 63 0.0 1.0 0.00 0.00 0.00 69 1016.6
20260507205134 67 71 0.0 1.0 0.00 0.00 0.00 70 1016.9
20260507204630 67 77 1.0 3.0 0.00 0.00 0.00 68 1017.0
20260507204128 68 53 0.0 1.0 0.00 0.00 0.00 69 1017.3
20260507203626 68 43 1.0 2.0 0.00 0.00 0.00 68 1017.6
20260507203123 68 60 1.0 1.0 0.00 0.00 0.00 69 1017.6
20260507202619 68 95 0.0 3.0 0.00 0.00 0.00 68 1017.7
20260507202115 68 316 2.0 3.0 0.00 0.00 0.00 67 1017.6
20260507201610 69 24 1.0 4.0 0.00 0.00 0.00 66 1017.5
20260507201108 69 36 1.0 3.0 0.00 0.00 0.00 67 1017.7
20260507200603 69 27 2.0 3.0 0.00 0.00 0.00 67 1017.8
20260507200059 69 69 1.0 7.0 0.00 0.00 0.00 66 1018.1
20260507195557 69 30 2.0 3.0 0.00 0.00 0.00 67 1018.2
20260507195054 70 47 1.0 1.0 0.00 0.00 0.00 67 1018.2
20260507194550 70 53 2.0 2.0 0.00 0.00 0.00 65 1018.3
20260507194046 71 6 2.0 2.0 0.00 0.00 0.00 66 1018.2
20260507193543 70 64 0.0 2.0 0.00 0.00 0.00 67 1018.4
20260507193040 69 67 0.0 3.0 0.00 0.00 0.00 66 1018.4
20260507192536 70 72 1.0 4.0 0.00 0.00 0.00 66 1018.4
20260507192033 70 28 0.0 3.0 0.00 0.00 0.00 66 1018.5
20260507191528 69 328 1.0 4.0 0.00 0.00 0.00 65 1018.2
20260507191026 70 60 1.0 4.0 0.00 0.00 0.00 66 1017.8
20260507190523 70 70 0.0 1.0 0.00 0.00 0.00 65 1018.1
20260507190022 71 39 1.0 1.0 0.00 0.00 0.00 64 1018.0
20260507185520 71 95 2.0 2.0 0.00 0.00 0.00 63 1018.0
20260507185016 71 77 2.0 3.0 0.00 0.00 0.00 64 1018.4
20260507184514 71 59 0.0 1.0 0.00 0.00 0.00 65 1018.5
20260507184012 70 43 1.0 2.0 0.00 0.00 0.00 66 1018.7
20260507183507 71 103 2.0 2.0 0.00 0.00 0.00 64 1018.9
20260507183005 71 65 0.0 1.0 0.00 0.00 0.00 65 1018.4
20260507182501 71 61 0.0 2.0 0.00 0.00 0.00 65 1018.1
20260507181957 71 70 0.0 1.0 0.00 0.00 0.00 63 1018.4
20260507181454 71 58 1.0 1.0 0.00 0.00 0.00 64 1019.0
20260507180950 71 63 0.0 1.0 0.00 0.00 0.00 65 1019.2
20260507180447 71 61 0.0 1.0 0.00 0.00 0.00 65 1019.7
20260507175943 71 47 1.0 2.0 0.00 0.00 0.00 65 1019.4
20260507175440 70 57 2.0 3.0 0.00 0.00 0.00 64 1019.9
20260507174938 70 67 0.0 2.0 0.00 0.00 0.00 66 1019.7
20260507174434 71 43 1.0 3.0 0.00 0.00 0.00 66 1019.2
20260507173932 71 55 0.0 3.0 0.00 0.00 0.00 65 1019.1
20260507173429 70 57 0.0 2.0 0.00 0.00 0.00 66 1018.9
20260507172926 69 61 0.0 1.0 0.00 0.00 0.00 69 1019.0
20260507172422 67 51 0.0 2.0 0.00 0.00 0.00 70 1018.9
20260507171918 68 52 1.0 2.0 0.00 0.00 0.00 70 1019.1
20260507171415 67 63 2.0 2.0 0.00 0.00 0.00 69 1019.4
20260507170912 67 49 1.0 2.0 0.00 0.00 0.00 70 1019.3
20260507170409 66 26 3.0 3.0 0.00 0.00 0.00 71 1019.5
20260507165905 66 60 0.0 1.0 0.00 0.00 0.00 71 1019.8
20260507165401 67 61 0.0 1.0 0.00 0.00 0.00 71 1019.6
20260507164857 66 59 0.0 0.0 0.00 0.00 0.00 71 1019.4
20260507164354 66 54 0.0 1.0 0.00 0.00 0.00 71 1019.7
20260507163851 65 53 1.0 3.0 0.00 0.00 0.00 73 1019.8
20260507163348 65 53 1.0 3.0 0.00 0.00 0.00 73 1019.8
20260507162845 64 52 1.0 2.0 0.00 0.00 0.00 73 1019.7
20260507162340 64 24 1.0 2.0 0.00 0.00 0.00 73 1019.7
20260507161838 64 63 0.0 2.0 0.00 0.00 0.00 75 1019.7
20260507161334 64 38 1.0 2.0 0.00 0.00 0.00 74 1019.5
20260507160831 64 71 1.0 1.0 0.00 0.00 0.00 75 1019.3
20260507160326 63 57 0.0 2.0 0.00 0.00 0.00 75 1019.3
20260507155823 63 60 1.0 2.0 0.00 0.00 0.00 75 1019.5
20260507155319 64 36 1.0 3.0 0.00 0.00 0.00 74 1019.8
20260507154816 64 55 0.0 1.0 0.00 0.00 0.00 74 1019.4
20260507154313 64 58 0.0 1.0 0.00 0.00 0.00 75 1019.2
20260507153810 64 55 1.0 3.0 0.00 0.00 0.00 74 1019.2
20260507153306 64 59 1.0 1.0 0.00 0.00 0.00 74 1019.0
20260507152803 64 61 1.0 3.0 0.00 0.00 0.00 74 1018.7
20260507152259 64 49 1.0 2.0 0.00 0.00 0.00 75 1018.9
20260507151755 62 70 1.0 3.0 0.00 0.00 0.00 77 1019.1
20260507151251 61 20 0.0 2.0 0.00 0.00 0.00 79 1018.6
20260507150748 61 144 4.0 6.0 0.00 0.00 0.00 78 1018.4
20260507150245 62 6 1.0 3.0 0.00 0.00 0.00 78 1019.1
20260507145741 62 56 0.0 3.0 0.00 0.00 0.00 78 1019.3
20260507145238 61 44 2.0 3.0 0.00 0.00 0.00 79 1019.4
20260507144735 61 55 0.0 2.0 0.00 0.00 0.00 81 1019.5
20260507144233 60 66 1.0 2.0 0.00 0.00 0.00 82 1019.5
20260507143729 60 74 1.0 2.0 0.00 0.00 0.00 82 1019.2
20260507143226 60 11 0.0 1.0 0.00 0.00 0.00 83 1019.1
20260507142723 60 41 1.0 2.0 0.00 0.00 0.00 83 1019.3
20260507142219 59 54 0.0 1.0 0.00 0.00 0.00 84 1019.6
20260507141715 59 60 0.0 4.0 0.00 0.00 0.00 84 1019.5
20260507141213 59 59 0.0 3.0 0.00 0.00 0.00 84 1019.7
20260507140708 59 44 0.0 8.0 0.00 0.00 0.00 85 1019.4
20260507140206 59 39 0.0 1.0 0.00 0.00 0.00 85 1019.5
20260507135703 59 103 2.0 4.0 0.00 0.00 0.00 85 1019.7
20260507135200 60 58 1.0 1.0 0.00 0.00 0.00 85 1019.7
20260507134657 60 44 0.0 2.0 0.00 0.00 0.00 86 1019.6